Weather Service Report


981 
ASUS41 KALY 261610
RWRALY

NEW YORK STATE HOURLY WEATHER ROUNDUP
NATIONAL WEATHER SERVICE ALBANY NY
1100 AM EST FRI DEC 26 2014

NOTE: "FAIR" INDICATES FEW OR NO CLOUDS BELOW 12,000 FEET WITH NO
SIGNIFICANT WEATHER AND/OR NO OBSTRUCTIONS TO VISIBILITY.

NYZ032-033-038>043-046>054-057>066-NYZ062>081-261700-
EAST

  
CITY           SKY/WX    TMP DP  RH WIND       PRES   REMARKS
ALBANY         CLOUDY    42  28  57 W16G24    30.24R                  
GLENS FALLS    CLOUDY    42  30  62 SW7       30.19S                  
POUGHKEEPSIE   SUNNY     45  29  53 CALM      30.23S                  
MONTGOMERY     SUNNY     45  28  51 NW9       30.22F                  
WHITE PLAINS   SUNNY     44  29  55 NW12      30.21F                  
ISLIP          SUNNY     47  30  51 NW10      30.21F                  
NEW YORK CITY  MOSUNNY   44  29  55 NW10      30.24F                  
CENTRAL PARK   SUNNY     45  27  49 W8        30.27S                  
$$

NYZ005>009-017-018-044>046-055-056-261700-
CENTRAL

  
CITY           SKY/WX    TMP DP  RH WIND       PRES   REMARKS
FULTON         CLOUDY    42  31  64 SW6       30.22F                  
SYRACUSE       CLOUDY    42  30  62 W10       30.23F                  
ROME           CLOUDY    40  31  70 W9        30.23F WCI  34          
ELMIRA         MOSUNNY   40  28  62 W9        30.25F WCI  34          
BINGHAMTON     MOSUNNY   39  27  62 SW6       30.20F WCI  35          
MONTICELLO     MOSUNNY   39  28  65 NW8       30.22F WCI  34          
$$

NYZ026>034-041>043-261700-
NORTH

  
CITY           SKY/WX    TMP DP  RH WIND       PRES   REMARKS
WATERTOWN      CLOUDY    41  30  65 SW12      30.20S                  
FORT DRUM      NOT AVBL                                               
MASSENA        PTSUNNY   41  29  62 SW18G28   30.14F                  
SARANAC LAKE   CLOUDY    33  28  81 SW14G20   30.09F WCI  23          
PLATTSBURGH    PTSUNNY   42  29  59 VRB7      30.13F                  
$$

NYZ001>004-010>016-019>021-261700-
WEST

  
CITY           SKY/WX    TMP DP  RH WIND       PRES   REMARKS
NIAGARA FALLS  PTSUNNY   41  33  73 SW20      30.19F                  
BUFFALO        MOSUNNY   41  31  67 SW17G24   30.20F                  
DUNKIRK        SUNNY     42  32  67 S16G23    30.21F                  
JAMESTOWN      MOSUNNY   37  28  70 S12       30.19F WCI  30          
WELLSVILLE     MOSUNNY   35  26  69 SW9       30.22F WCI  28          
ROCHESTER      PTSUNNY   44  31  60 SW12      30.21F                  
PENN YAN       PTSUNNY   40  28  62 SW9       30.24R WCI  34          
$$

             KEY
       WCI = WIND CHILL INDEX
       VSB = VISIBILITY
       HX  = HEAT INDEX
$$

Return to Home page


Western Regional Climate Center, wrcc@dri.edu